| time (UTC) | temp F | wind direction | speed MPH | gust MPH | rain 1hr in | rain 24hr in | rain mn in | humidity % | barometer mb |
| 20260506133018 | 48 | 26 | 2.0 | 5.0 | 0.00 | 0.17 | 0.00 | 91 | 1016.6 |
| 20260506131518 | 48 | 340 | 3.0 | 5.0 | 0.00 | 0.17 | 0.00 | 92 | 1016.3 |
| 20260506130013 | 47 | 40 | 2.0 | 6.0 | 0.00 | 0.17 | 0.00 | 93 | 1016.1 |
| 20260506124508 | 47 | 22 | 3.0 | 7.0 | 0.00 | 0.18 | 0.00 | 93 | 1015.7 |
| 20260506123004 | 47 | 17 | 4.0 | 8.0 | 0.00 | 0.18 | 0.00 | 94 | 1015.2 |
| 20260506121503 | 47 | 5 | 3.0 | 6.0 | 0.00 | 0.18 | 0.00 | 94 | 1014.8 |
| 20260506120108 | 47 | 30 | 3.0 | 6.0 | 0.00 | 0.18 | 0.00 | 93 | 1014.6 |
| 20260506114557 | 46 | 332 | 1.0 | 4.0 | 0.00 | 0.33 | 0.00 | 93 | 1014.8 |
| 20260506113057 | 46 | 36 | 2.0 | 4.0 | 0.00 | 0.33 | 0.00 | 93 | 1014.1 |
| 20260506111553 | 46 | 5 | 2.0 | 4.0 | 0.00 | 0.33 | 0.00 | 93 | 1013.8 |
| 20260506110057 | 46 | 336 | 3.0 | 5.0 | 0.00 | 0.33 | 0.00 | 93 | 1014.0 |
| 20260506104553 | 46 | 5 | 3.0 | 10.0 | 0.00 | 0.50 | 0.00 | 93 | 1013.6 |
| 20260506103055 | 46 | 350 | 2.0 | 8.0 | 0.00 | 0.50 | 0.00 | 93 | 1013.3 |
| 20260506101556 | 46 | 46 | 4.0 | 9.0 | 0.00 | 0.50 | 0.00 | 94 | 1012.7 |
| 20260506094543 | 46 | 26 | 3.0 | 10.0 | 0.00 | 0.50 | 0.00 | 94 | 1012.2 |
| 20260506093045 | 47 | 12 | 4.0 | 11.0 | 0.00 | 0.50 | 0.00 | 95 | 1012.6 |
| 20260506091540 | 47 | 344 | 3.0 | 8.0 | 0.00 | 0.50 | 0.00 | 95 | 1013.0 |
| 20260506090038 | 47 | 13 | 4.0 | 9.0 | 0.00 | 0.50 | 0.00 | 95 | 1013.0 |
| 20260506084554 | 47 | 355 | 4.0 | 9.0 | 0.00 | 0.50 | 0.00 | 95 | 1012.8 |
| 20260506083034 | 47 | 36 | 4.0 | 8.0 | 0.00 | 0.50 | 0.00 | 95 | 1012.3 |
| 20260506081540 | 47 | 38 | 2.0 | 8.0 | 0.00 | 0.50 | 0.00 | 95 | 1012.2 |
| 20260506073038 | 47 | 343 | 4.0 | 8.0 | 0.00 | 0.50 | 0.00 | 96 | 1011.8 |
| 20260506071525 | 47 | 355 | 4.0 | 9.0 | 0.00 | 0.50 | 0.00 | 96 | 1011.6 |
| 20260506061520 | 47 | 355 | 3.0 | 10.0 | 0.00 | 0.50 | 0.00 | 96 | 1011.1 |
| 20260506044524 | 48 | 69 | 4.0 | 9.0 | 0.00 | 0.50 | 0.50 | 96 | 1010.8 |
| 20260506043009 | 48 | 347 | 5.0 | 12.0 | 0.00 | 0.50 | 0.50 | 96 | 1011.0 |
| 20260506041506 | 48 | 14 | 4.0 | 11.0 | 0.00 | 0.50 | 0.50 | 96 | 1010.9 |
| 20260506040003 | 49 | 27 | 3.0 | 11.0 | 0.00 | 0.50 | 0.50 | 96 | 1010.6 |
| 20260506034628 | 50 | 24 | 3.0 | 11.0 | 0.00 | 0.50 | 0.50 | 96 | 1010.3 |
| 20260506033101 | 50 | 5 | 5.0 | 10.0 | 0.01 | 0.50 | 0.50 | 96 | 1009.9 |
| 20260506031553 | 51 | 339 | 6.0 | 12.0 | 0.14 | 0.50 | 0.50 | 96 | 1009.8 |
| 20260506030052 | 51 | 340 | 5.0 | 14.0 | 0.16 | 0.50 | 0.50 | 96 | 1009.6 |
| 20260506024549 | 51 | 34 | 5.0 | 11.0 | 0.16 | 0.50 | 0.50 | 96 | 1009.3 |
| 20260506023103 | 52 | 18 | 4.0 | 13.0 | 0.15 | 0.49 | 0.49 | 96 | 1008.9 |
| 20260506021540 | 53 | 355 | 4.0 | 11.0 | 0.02 | 0.36 | 0.36 | 96 | 1008.5 |
| 20260506020039 | 54 | 329 | 6.0 | 15.0 | 0.00 | 0.34 | 0.34 | 96 | 1008.2 |
| 20260506014534 | 54 | 355 | 6.0 | 11.0 | 0.01 | 0.34 | 0.34 | 95 | 1007.8 |
| 20260506013031 | 55 | 350 | 6.0 | 12.0 | 0.01 | 0.34 | 0.34 | 95 | 1007.9 |
| 20260506011528 | 56 | 47 | 5.0 | 10.0 | 0.01 | 0.34 | 0.34 | 95 | 1007.9 |
| 20260506010026 | 57 | 51 | 3.0 | 6.0 | 0.01 | 0.34 | 0.34 | 96 | 1007.0 |
| 20260506004534 | 57 | 37 | 5.0 | 11.0 | 0.00 | 0.33 | 0.33 | 95 | 1006.8 |
| 20260506003036 | 58 | 15 | 5.0 | 10.0 | 0.00 | 0.33 | 0.33 | 95 | 1006.5 |
| 20260506001519 | 58 | 332 | 4.0 | 11.0 | 0.00 | 0.33 | 0.33 | 95 | 1006.3 |
| 20260506000017 | 59 | 30 | 6.0 | 12.0 | 0.00 | 0.33 | 0.33 | 95 | 1006.2 |
| 20260505234525 | 60 | 19 | 8.0 | 15.0 | 0.00 | 0.33 | 0.33 | 94 | 1005.8 |
| 20260505233012 | 61 | 349 | 6.0 | 11.0 | 0.00 | 0.33 | 0.33 | 94 | 1006.0 |
| 20260505231515 | 63 | 39 | 5.0 | 10.0 | 0.00 | 0.33 | 0.33 | 93 | 1005.9 |
| 20260505230012 | 66 | 33 | 5.0 | 9.0 | 0.00 | 0.33 | 0.33 | 93 | 1005.0 |
| 20260505224511 | 68 | 147 | 0.0 | 1.0 | 0.00 | 0.33 | 0.33 | 95 | 1005.1 |
| 20260505223009 | 68 | 147 | 0.0 | 3.0 | 0.00 | 0.33 | 0.33 | 94 | 1005.2 |
| 20260505221512 | 68 | 178 | 1.0 | 5.0 | 0.00 | 0.33 | 0.33 | 94 | 1005.5 |
| 20260505220020 | 68 | 209 | 0.0 | 2.0 | 0.00 | 0.33 | 0.33 | 94 | 1005.5 |
| 20260505214508 | 68 | 190 | 1.0 | 3.0 | 0.00 | 0.33 | 0.33 | 94 | 1005.2 |
| 20260505213006 | 67 | 169 | 0.0 | 0.0 | 0.00 | 0.33 | 0.33 | 94 | 1004.7 |
| 20260505211506 | 67 | 205 | 0.0 | 2.0 | 0.00 | 0.33 | 0.33 | 94 | 1005.2 |
| 20260505210005 | 67 | 202 | 1.0 | 4.0 | 0.00 | 0.33 | 0.33 | 94 | 1005.5 |
| 20260505204504 | 67 | 198 | 0.0 | 4.0 | 0.00 | 0.33 | 0.33 | 94 | 1005.5 |
| 20260505203002 | 67 | 188 | 0.0 | 4.0 | 0.00 | 0.33 | 0.33 | 94 | 1005.6 |
| 20260505201605 | 67 | 172 | 0.0 | 4.0 | 0.00 | 0.33 | 0.33 | 95 | 1005.6 |
| 20260505201501 | 67 | 186 | 0.0 | 4.0 | 0.00 | 0.33 | 0.33 | 95 | 1005.7 |
| 20260505200105 | 67 | 227 | 0.0 | 0.0 | 0.00 | 0.33 | 0.33 | 95 | 1005.8 |
| 20260505194600 | 67 | 221 | 0.0 | 0.0 | 0.00 | 0.33 | 0.33 | 95 | 1005.8 |
| 20260505193100 | 67 | 234 | 0.0 | 0.0 | 0.00 | 0.33 | 0.33 | 94 | 1005.7 |
| 20260505191601 | 66 | 200 | 0.0 | 2.0 | 0.00 | 0.33 | 0.33 | 95 | 1005.9 |
| 20260505190057 | 66 | 191 | 0.0 | 1.0 | 0.00 | 0.33 | 0.33 | 95 | 1005.9 |
| 20260505184602 | 66 | 205 | 0.0 | 2.0 | 0.00 | 0.33 | 0.33 | 94 | 1005.7 |
| 20260505183054 | 66 | 196 | 1.0 | 3.0 | 0.00 | 0.33 | 0.33 | 94 | 1005.8 |
| 20260505181554 | 66 | 155 | 1.0 | 4.0 | 0.00 | 0.33 | 0.33 | 95 | 1005.7 |
| 20260505180058 | 65 | 180 | 2.0 | 5.0 | 0.00 | 0.33 | 0.33 | 95 | 1005.7 |
| 20260505173049 | 65 | 198 | 1.0 | 5.0 | 0.00 | 0.33 | 0.33 | 96 | 1005.8 |
| 20260505171548 | 65 | 186 | 0.0 | 3.0 | 0.00 | 0.33 | 0.33 | 96 | 1005.9 |
| 20260505170117 | 65 | 186 | 1.0 | 3.0 | 0.00 | 0.33 | 0.33 | 96 | 1006.1 |
| 20260505164549 | 64 | 179 | 0.0 | 4.0 | 0.00 | 0.33 | 0.33 | 96 | 1006.2 |
| 20260505163046 | 64 | 195 | 0.0 | 2.0 | 0.00 | 0.33 | 0.33 | 96 | 1006.4 |
| 20260505161555 | 64 | 179 | 0.0 | 3.0 | 0.00 | 0.33 | 0.33 | 96 | 1006.4 |
| 20260505153054 | 63 | 174 | 1.0 | 3.0 | 0.00 | 0.33 | 0.33 | 96 | 1006.5 |
| 20260505151549 | 63 | 186 | 2.0 | 5.0 | 0.00 | 0.33 | 0.33 | 96 | 1006.5 |